W7YP Weather Reports


Display with metric or nautical units.
time (UTC)temp
F
wind
direction
speed
MPH
gust
MPH
rain 1hr
in
rain 24hr
in
rain mn
in
humidity
%
barometer
mb
20260831063019 48 292 0.0 0.0 0.00 0.43 0.00 97 1018.2
20260831062518 48 292 0.0 0.0 0.00 0.43 0.00 97 1018.3
20260831062014 48 292 0.0 0.0 0.00 0.43 0.00 97 1018.3
20260831061509 48 292 0.0 0.0 0.00 0.43 0.00 97 1018.3
20260831061003 48 292 0.0 0.0 0.00 0.43 0.00 97 1018.3
20260831060459 48 292 0.0 0.0 0.00 0.43 0.00 97 1018.2
20260831060002 48 292 0.0 0.0 0.00 0.43 0.43 97 1018.3
20260831055454 48 292 0.0 0.0 0.00 0.43 0.43 97 1018.5
20260831054954 48 292 0.0 0.0 0.00 0.43 0.43 97 1018.5
20260831054713 48 292 0.0 1.0 0.00 0.43 0.43 97 1018.5
20260831053949 48 292 0.0 1.0 0.00 0.43 0.43 97 1018.6
20260831053447 48 292 0.0 3.0 0.00 0.43 0.43 97 1018.6
20260831052945 49 292 0.0 3.0 0.00 0.43 0.43 97 1018.6
20260831052445 49 292 0.0 0.0 0.00 0.43 0.43 97 1018.7
20260831052207 48 292 0.0 0.0 0.00 0.43 0.43 97 1018.6
20260831051927 48 292 0.0 0.0 0.00 0.43 0.43 97 1018.6
20260831050933 48 292 0.0 0.0 0.00 0.43 0.43 97 1018.7
20260831050431 48 292 0.0 0.0 0.00 0.43 0.43 97 1018.7
20260831045926 48 292 0.0 0.0 0.00 0.43 0.43 97 1018.8
20260831045421 48 292 0.0 0.0 0.00 0.43 0.43 97 1018.9
20260831044916 48 292 0.0 0.0 0.00 0.43 0.43 97 1018.9
20260831044416 48 292 0.0 0.0 0.00 0.43 0.43 97 1018.8
20260831043917 48 292 0.0 0.0 0.00 0.43 0.43 97 1018.7
20260831043634 48 292 0.0 0.0 0.00 0.43 0.43 97 1018.7
20260831042911 48 292 0.0 0.0 0.00 0.43 0.43 97 1018.7
20260831042406 48 292 0.0 0.0 0.00 0.43 0.43 97 1018.7
20260831041903 48 292 0.0 0.0 0.00 0.43 0.43 97 1018.7
20260831041631 48 292 0.0 1.0 0.00 0.43 0.43 97 1018.6
20260831040857 48 292 0.0 1.0 0.00 0.43 0.43 97 1018.6
20260831040628 48 292 0.0 0.0 0.00 0.43 0.43 97 1018.5
20260831035843 48 292 0.0 0.0 0.00 0.43 0.43 97 1018.6
20260831035829 48 292 0.0 0.0 0.00 0.43 0.43 97 1018.7
20260831034828 48 292 0.0 0.0 0.00 0.43 0.43 97 1018.6
20260831034328 48 292 0.0 0.0 0.00 0.43 0.43 97 1018.6
20260831033823 48 292 0.0 0.0 0.00 0.43 0.43 96 1018.5
20260831033323 48 292 0.0 0.0 0.00 0.43 0.43 96 1018.5
20260831033045 48 292 0.0 2.0 0.00 0.43 0.43 96 1018.5
20260831032323 48 292 0.0 2.0 0.00 0.43 0.43 96 1018.5
20260831032038 48 292 0.0 0.0 0.00 0.43 0.43 96 1018.6
20260831031309 49 292 0.0 0.0 0.00 0.43 0.43 96 1018.4
20260831030804 49 292 0.0 0.0 0.00 0.43 0.43 96 1018.4
20260831030254 49 292 0.0 0.0 0.00 0.43 0.43 96 1018.4
20260831030024 49 292 0.0 0.0 0.00 0.43 0.43 96 1018.3
20260831025511 49 292 0.0 0.0 0.00 0.43 0.43 96 1018.3
20260831024745 49 292 0.0 0.0 0.00 0.43 0.43 96 1018.2
20260831024244 49 292 0.0 0.0 0.00 0.43 0.43 96 1018.2
20260831023742 49 292 0.0 0.0 0.00 0.43 0.43 96 1018.2
20260831023235 49 292 0.0 0.0 0.00 0.43 0.43 96 1018.1
20260831022735 49 292 0.0 0.0 0.00 0.43 0.43 96 1017.9
20260831022238 49 292 0.0 0.0 0.00 0.43 0.43 96 1017.8
20260831021714 49 292 0.0 0.0 0.00 0.43 0.43 96 1017.8
20260831021429 49 292 0.0 0.0 0.00 0.43 0.43 96 1017.8
20260831020934 49 292 0.0 0.0 0.00 0.43 0.43 96 1017.7
20260831020149 49 292 0.0 0.0 0.00 0.43 0.43 96 1017.7
20260831015914 49 292 0.0 0.0 0.00 0.43 0.43 96 1017.7
20260831015145 49 292 0.0 0.0 0.00 0.43 0.43 96 1017.7
20260831014648 49 292 0.0 0.0 0.00 0.43 0.43 96 1017.7
20260831014358 49 292 0.0 1.0 0.00 0.43 0.43 96 1017.7
20260831013640 49 292 0.0 1.0 0.00 0.43 0.43 96 1017.8
20260831013136 50 291 0.0 1.0 0.00 0.43 0.43 96 1017.8
20260831012636 50 292 0.0 0.0 0.00 0.43 0.43 96 1017.7
20260831012139 50 292 0.0 0.0 0.00 0.43 0.43 96 1017.7
20260831011631 50 292 0.0 0.0 0.00 0.43 0.43 96 1017.6
20260831011121 50 292 0.0 0.0 0.00 0.43 0.43 96 1017.7
20260831010844 50 292 0.0 0.0 0.00 0.43 0.43 96 1017.6
20260831010121 50 292 0.0 0.0 0.00 0.43 0.43 96 1017.6
20260831010109 51 292 0.0 0.0 0.00 0.43 0.43 96 1017.6
20260831005117 51 292 0.0 0.0 0.00 0.43 0.43 96 1017.6
20260831004606 51 292 0.0 0.0 0.00 0.43 0.43 96 1017.6
20260831004315 51 292 0.0 0.0 0.00 0.43 0.43 96 1017.6
20260831003556 51 292 0.0 0.0 0.00 0.43 0.43 96 1017.6
20260831003055 51 292 0.0 0.0 0.00 0.43 0.43 96 1017.6
20260831002542 51 292 0.0 0.0 0.00 0.43 0.43 96 1017.6
20260831002042 51 292 0.0 0.0 0.00 0.43 0.43 96 1017.6
20260831001805 51 292 0.0 0.0 0.00 0.43 0.43 96 1017.6
20260831001032 51 292 0.0 0.0 0.00 0.43 0.43 96 1017.5
20260831000532 51 292 0.0 1.0 0.00 0.43 0.43 96 1017.5
20260831000028 51 292 0.0 1.0 0.00 0.43 0.43 96 1017.4
20260830235522 51 292 0.0 0.0 0.00 0.43 0.43 96 1017.4
20260830235017 51 292 0.0 0.0 0.00 0.43 0.43 96 1017.4
20260830234513 51 292 0.0 0.0 0.00 0.43 0.43 96 1017.5
20260830234234 51 292 0.0 0.0 0.00 0.43 0.43 96 1017.5
20260830233513 51 292 0.0 0.0 0.00 0.43 0.43 96 1017.4
20260830233008 51 292 0.0 0.0 0.00 0.43 0.43 96 1017.4
20260830232503 51 292 0.0 0.0 0.00 0.43 0.43 96 1017.4
20260830232003 51 292 0.0 0.0 0.00 0.43 0.43 96 1017.5
20260830231506 51 292 0.0 1.0 0.00 0.43 0.43 96 1017.5
20260830231003 51 292 0.0 1.0 0.00 0.43 0.43 96 1017.5
20260830230459 51 292 0.0 0.0 0.00 0.43 0.43 96 1017.5
20260830225955 51 292 0.0 0.0 0.00 0.43 0.43 96 1017.4
20260830225454 51 292 0.0 0.0 0.00 0.43 0.43 96 1017.5
20260830225438 51 292 0.0 0.0 0.00 0.43 0.43 96 1017.5
20260830224450 50 292 0.0 0.0 0.00 0.43 0.43 96 1017.6
20260830223949 50 292 0.0 0.0 0.00 0.43 0.43 96 1017.5
20260830223450 50 292 0.0 0.0 0.00 0.43 0.43 96 1017.6
20260830222939 50 292 0.0 0.0 0.00 0.43 0.43 96 1017.7
20260830222430 50 292 0.0 0.0 0.00 0.43 0.43 96 1017.7
20260830221930 50 292 0.0 0.0 0.00 0.43 0.43 96 1017.7
20260830221428 50 292 0.0 0.0 0.00 0.43 0.43 96 1017.7
20260830220926 50 292 0.0 0.0 0.00 0.43 0.43 96 1017.6
20260830220635 49 292 0.0 0.0 0.00 0.43 0.43 96 1017.7
20260830215906 49 292 0.0 0.0 0.00 0.43 0.43 96 1017.7
20260830215400 50 292 0.0 0.0 0.00 0.43 0.43 96 1017.7
20260830214904 50 292 0.0 0.0 0.00 0.43 0.43 96 1017.7
20260830214402 49 292 0.0 0.0 0.00 0.43 0.43 96 1017.6
20260830213901 49 292 0.0 0.0 0.00 0.43 0.43 96 1017.8
20260830213616 49 292 0.0 0.0 0.00 0.43 0.43 96 1017.7
20260830212857 49 292 0.0 2.0 0.00 0.43 0.43 96 1017.7
20260830212352 49 292 0.0 3.0 0.00 0.43 0.43 96 1017.6
20260830211855 49 292 1.0 3.0 0.00 0.43 0.43 96 1017.7
20260830211344 49 355 0.0 0.0 0.00 0.43 0.43 96 1017.7
20260830210834 49 355 0.0 0.0 0.00 0.43 0.43 96 1017.8
20260830210316 49 355 0.0 0.0 0.00 0.43 0.43 95 1017.7
20260830205815 49 355 0.0 0.0 0.00 0.43 0.43 95 1017.6
20260830205257 49 355 0.0 0.0 0.00 0.43 0.43 95 1017.6
20260830204757 49 355 0.0 0.0 0.00 0.43 0.43 95 1017.7
20260830204247 49 355 0.0 0.0 0.00 0.43 0.43 95 1017.4
20260830203746 49 355 0.0 0.0 0.00 0.43 0.43 95 1017.4
20260830203250 49 355 0.0 0.0 0.01 0.43 0.43 95 1017.4
20260830202745 49 355 0.0 1.0 0.01 0.43 0.43 95 1017.4
20260830202238 49 355 0.0 1.0 0.01 0.43 0.43 95 1017.3
20260830201733 49 352 0.0 0.0 0.01 0.43 0.43 95 1017.2
20260830201446 49 352 0.0 0.0 0.02 0.43 0.43 94 1017.0
20260830200729 49 352 0.0 0.0 0.02 0.43 0.43 94 1017.0
20260830200227 49 352 0.0 0.0 0.03 0.43 0.43 94 1016.9
20260830195731 49 352 0.0 0.0 0.03 0.43 0.43 94 1017.0
20260830195457 49 352 0.0 0.0 0.04 0.43 0.43 94 1017.0
20260830194728 49 352 0.0 0.0 0.05 0.43 0.43 94 1017.0
20260830194224 49 352 0.0 2.0 0.06 0.43 0.43 94 1016.9
20260830193721 49 352 0.0 2.0 0.06 0.43 0.43 94 1017.0
20260830193447 49 336 0.0 0.0 0.06 0.42 0.42 95 1016.9
20260830192719 49 336 0.0 2.0 0.07 0.42 0.42 94 1016.9
20260830192219 49 336 0.0 2.0 0.08 0.42 0.42 94 1017.0
20260830191719 49 355 0.0 0.0 0.09 0.42 0.42 94 1016.8
20260830191215 49 355 0.0 0.0 0.09 0.41 0.41 94 1016.8
20260830190709 49 355 0.0 0.0 0.10 0.41 0.41 94 1016.8
20260830190210 49 355 0.0 0.0 0.10 0.40 0.40 94 1016.9
20260830185703 49 355 0.0 1.0 0.11 0.40 0.40 94 1016.9
20260830185159 48 355 0.0 3.0 0.11 0.39 0.39 93 1016.9
20260830184922 49 350 0.0 4.0 0.11 0.38 0.38 94 1016.7
20260830184150 49 346 0.0 12.0 0.11 0.37 0.37 94 1016.7
20260830183908 49 238 2.0 12.0 0.13 0.37 0.37 94 1016.6
20260830183146 49 134 0.0 2.0 0.13 0.36 0.36 94 1016.7
20260830182626 49 118 0.0 2.0 0.13 0.35 0.35 94 1016.6
20260830182124 49 119 0.0 2.0 0.13 0.34 0.34 94 1016.6
20260830181845 49 137 0.0 0.0 0.13 0.33 0.33 94 1016.7
20260830181346 49 137 0.0 0.0 0.13 0.32 0.32 94 1016.5
20260830180617 49 137 0.0 0.0 0.13 0.31 0.31 94 1016.5
20260830180118 49 137 0.0 0.0 0.13 0.30 0.30 94 1016.6
20260830180048 49 137 0.0 1.0 0.13 0.29 0.29 94 1016.5
20260830175118 49 137 0.0 2.0 0.13 0.28 0.28 94 1016.5
20260830174607 49 137 0.0 2.0 0.13 0.27 0.27 94 1016.5
20260830174109 49 137 0.0 1.0 0.14 0.26 0.26 94 1016.4
20260830173829 48 137 0.0 1.0 0.12 0.24 0.24 93 1016.3
20260830173100 48 137 0.0 1.0 0.12 0.23 0.23 93 1016.3
20260830172552 48 137 0.0 2.0 0.12 0.22 0.22 92 1016.2
20260830172056 48 137 0.0 8.0 0.12 0.21 0.21 92 1016.0
20260830171553 48 150 1.0 8.0 0.12 0.20 0.20 92 1016.2
20260830171053 48 275 0.0 3.0 0.11 0.19 0.19 92 1016.2
20260830170553 48 275 0.0 3.0 0.11 0.18 0.18 92 1016.2
20260830170049 49 288 0.0 2.0 0.11 0.17 0.17 92 1016.3
20260830165552 49 304 0.0 2.0 0.10 0.16 0.16 92 1016.3
20260830165046 49 304 0.0 1.0 0.10 0.15 0.15 91 1016.0
20260830164544 49 287 0.0 0.0 0.08 0.13 0.14 91 1016.2
20260830164027 49 287 0.0 4.0 0.07 0.12 0.13 90 1016.0
20260830163524 49 287 0.0 4.0 0.06 0.11 0.12 89 1016.0
20260830163030 49 100 1.0 4.0 0.06 0.11 0.11 88 1015.8
20260830162520 49 134 1.0 3.0 0.05 0.10 0.10 89 1015.8
20260830162240 49 173 0.0 3.0 0.04 0.09 0.09 89 1015.7
20260830161520 49 163 0.0 4.0 0.03 0.08 0.08 88 1015.8
20260830161020 49 22 0.0 4.0 0.04 0.08 0.08 87 1015.7
20260830160515 49 171 0.0 4.0 0.03 0.07 0.07 86 1015.7
20260830160015 49 111 0.0 5.0 0.02 0.06 0.06 87 1015.8
20260830155513 49 165 2.0 5.0 0.02 0.06 0.06 86 1015.8
20260830155011 49 188 0.0 7.0 0.01 0.05 0.05 86 1015.7
20260830154510 49 184 0.0 7.0 0.01 0.05 0.05 85 1015.8
20260830154011 49 15 2.0 7.0 0.01 0.05 0.05 86 1015.7
20260830153733 49 101 0.0 3.0 0.02 0.05 0.05 87 1015.9
20260830153006 49 59 0.0 3.0 0.02 0.05 0.05 86 1015.8
20260830152507 49 90 0.0 4.0 0.03 0.05 0.05 86 1015.8
20260830152007 49 91 2.0 7.0 0.03 0.05 0.05 85 1015.8
20260830151507 49 348 1.0 7.0 0.03 0.05 0.05 87 1015.9
20260830151007 49 101 0.0 3.0 0.02 0.04 0.04 87 1016.0
20260830150502 48 82 0.0 3.0 0.02 0.04 0.04 87 1016.0
20260830145953 48 5 0.0 4.0 0.02 0.04 0.04 88 1015.9
20260830145452 48 54 1.0 5.0 0.02 0.04 0.04 87 1016.0
20260830144952 48 215 1.0 5.0 0.02 0.04 0.04 87 1015.9
20260830144453 49 155 0.0 2.0 0.03 0.04 0.04 87 1015.8
20260830143956 49 120 0.0 0.0 0.03 0.04 0.04 88 1015.9
20260830143443 49 120 0.0 0.0 0.02 0.03 0.03 87 1015.9
20260830142943 49 120 0.0 0.0 0.03 0.03 0.03 86 1015.9
20260830142659 49 120 0.0 1.0 0.02 0.02 0.02 85 1015.9
20260830141934 49 120 0.0 1.0 0.02 0.02 0.02 85 1016.0
20260830141652 49 123 0.0 0.0 0.02 0.02 0.02 85 1015.9
20260830140934 49 123 0.0 3.0 0.02 0.02 0.02 84 1016.0
20260830140429 49 123 0.0 3.0 0.02 0.02 0.02 81 1015.8
20260830135931 50 115 0.0 3.0 0.02 0.02 0.02 81 1015.8
20260830135638 50 123 0.0 0.0 0.02 0.02 0.02 82 1015.9
20260830134919 51 123 0.0 7.0 0.02 0.02 0.02 81 1015.9
20260830134621 51 123 0.0 7.0 0.01 0.01 0.01 77 1015.8
20260830133900 51 60 0.0 2.0 0.01 0.01 0.01 79 1015.9
20260830133349 52 60 0.0 2.0 0.01 0.01 0.01 79 1015.8
20260830132846 52 61 0.0 1.0 0.00 0.00 0.00 74 1015.7
20260830132348 52 71 0.0 0.0 0.00 0.00 0.00 72 1015.7
20260830131846 52 71 0.0 0.0 0.00 0.00 0.00 67 1015.6
20260830131611 52 71 0.0 2.0 0.00 0.00 0.00 66 1015.5
20260830130849 53 71 0.0 2.0 0.00 0.00 0.00 67 1015.6
20260830130344 53 71 0.0 5.0 0.00 0.00 0.00 67 1015.5
20260830125842 53 49 1.0 7.0 0.00 0.00 0.00 64 1015.5
20260830125336 53 74 0.0 7.0 0.00 0.00 0.00 64 1015.4
20260830124831 53 143 0.0 3.0 0.00 0.00 0.00 66 1015.5
20260830124331 53 178 0.0 3.0 0.00 0.00 0.00 65 1015.3
20260830123826 53 74 0.0 2.0 0.00 0.00 0.00 62 1015.3
20260830123327 53 74 0.0 7.0 0.00 0.00 0.00 61 1015.4
20260830122826 53 72 0.0 7.0 0.00 0.00 0.00 63 1015.1
20260830122536 54 86 0.0 8.0 0.00 0.00 0.00 62 1015.1
20260830121812 54 12 0.0 13.0 0.00 0.00 0.00 59 1015.1
20260830121306 54 88 0.0 13.0 0.00 0.00 0.00 61 1015.1
20260830120807 54 122 1.0 11.0 0.00 0.00 0.00 60 1015.1
20260830120307 54 80 0.0 3.0 0.00 0.00 0.00 60 1015.1
20260830115809 54 72 0.0 7.0 0.00 0.00 0.00 60 1015.1
20260830115307 54 142 0.0 7.0 0.00 0.00 0.00 59 1015.1
20260830114803 54 70 1.0 3.0 0.00 0.00 0.00 59 1015.1
20260830114253 54 106 0.0 3.0 0.00 0.00 0.00 59 1015.0
20260830113743 54 106 1.0 9.0 0.00 0.00 0.00 59 1015.0
20260830113501 53 74 1.0 9.0 0.00 0.00 0.00 59 1015.0
20260830112743 53 250 2.0 9.0 0.00 0.00 0.00 60 1014.9
20260830112246 53 163 1.0 2.0 0.00 0.00 0.00 61 1015.0
20260830111743 53 161 0.0 4.0 0.00 0.00 0.00 60 1015.0
20260830111238 53 162 0.0 6.0 0.00 0.00 0.00 59 1014.9
20260830110741 53 199 1.0 6.0 0.00 0.00 0.00 60 1015.0
20260830110504 53 187 0.0 5.0 0.00 0.00 0.00 60 1015.1
20260830105739 53 187 0.0 5.0 0.00 0.00 0.00 60 1015.0
20260830105239 53 190 1.0 4.0 0.00 0.00 0.00 61 1015.1
20260830105002 53 212 0.0 5.0 0.00 0.00 0.00 60 1015.1
20260830104234 52 221 1.0 5.0 0.00 0.00 0.00 61 1015.1
20260830103734 52 184 0.0 3.0 0.00 0.00 0.00 63 1015.1
20260830103500 52 188 0.0 0.0 0.00 0.00 0.00 65 1015.1
20260830102735 52 188 0.0 8.0 0.00 0.00 0.00 63 1015.1
20260830102238 52 188 0.0 8.0 0.00 0.00 0.00 62 1015.1
20260830101733 52 5 0.0 4.0 0.00 0.00 0.00 62 1015.0
20260830101223 52 277 1.0 14.0 0.00 0.00 0.00 62 1015.0
20260830100716 51 331 2.0 14.0 0.00 0.00 0.00 63 1014.9
20260830100216 51 341 1.0 5.0 0.00 0.00 0.00 66 1015.0
20260830095716 50 304 0.0 10.0 0.00 0.00 0.00 67 1015.0
20260830095217 49 0 1.0 10.0 0.00 0.00 0.00 67 1015.0
20260830094712 49 298 1.0 5.0 0.00 0.00 0.00 69 1015.0
20260830094206 48 233 0.0 7.0 0.00 0.00 0.00 70 1015.1
20260830093702 47 180 2.0 7.0 0.00 0.00 0.00 74 1015.1
20260830093202 47 302 0.0 2.0 0.00 0.00 0.00 73 1015.3
20260830092657 47 302 0.0 0.0 0.00 0.00 0.00 76 1015.1
20260830092412 47 302 0.0 4.0 0.00 0.00 0.00 75 1015.3
20260830091648 47 302 0.0 4.0 0.00 0.00 0.00 75 1015.4
20260830091143 47 234 0.0 0.0 0.00 0.00 0.00 74 1015.3
20260830090640 47 234 0.0 2.0 0.00 0.00 0.00 74 1015.4
20260830090137 47 234 0.0 5.0 0.00 0.00 0.00 74 1015.3
20260830085637 47 234 0.0 5.0 0.00 0.00 0.00 73 1015.5
20260830085133 47 242 0.0 3.0 0.00 0.00 0.00 72 1015.7
20260830084855 47 243 0.0 1.0 0.00 0.00 0.00 72 1015.9
20260830084129 48 243 0.0 0.0 0.00 0.00 0.00 71 1015.9
20260830083853 48 243 0.0 1.0 0.00 0.00 0.00 70 1015.8
20260830083124 49 243 0.0 3.0 0.00 0.00 0.00 69 1015.9
20260830082614 49 243 0.0 3.0 0.00 0.00 0.00 68 1015.8
20260830082322 50 198 0.0 1.0 0.00 0.00 0.00 67 1015.8
20260830081606 50 198 0.0 1.0 0.00 0.00 0.00 67 1015.9
20260830081104 51 198 0.0 2.0 0.00 0.00 0.00 67 1015.8
20260830080605 51 198 0.0 2.0 0.00 0.00 0.00 67 1015.8
20260830080100 51 192 0.0 3.0 0.00 0.00 0.00 64 1015.8
20260830075805 51 192 0.0 3.0 0.00 0.00 0.00 63 1015.8
20260830075034 51 321 0.0 3.0 0.00 0.00 0.00 62 1015.7
20260830074537 51 236 0.0 2.0 0.00 0.00 0.00 65 1015.8
20260830074030 51 184 0.0 1.0 0.00 0.00 0.00 62 1015.8
20260830073530 51 184 0.0 1.0 0.00 0.00 0.00 63 1015.8
20260830073020 51 184 0.0 3.0 0.00 0.00 0.00 63 1015.7
20260830072515 52 267 0.0 4.0 0.00 0.00 0.00 61 1015.7
20260830072015 52 267 0.0 4.0 0.00 0.00 0.00 63 1015.7
20260830071506 52 22 0.0 2.0 0.00 0.00 0.00 61 1015.7
20260830071001 53 22 0.0 2.0 0.00 0.00 0.00 58 1015.7
20260830070500 53 177 0.0 2.0 0.00 0.00 0.00 62 1015.7
20260830070001 54 177 0.0 3.0 0.00 0.00 0.00 62 1015.7
20260830065501 54 176 0.0 3.0 0.00 0.00 0.00 57 1015.7
20260830065225 54 203 0.0 2.0 0.00 0.00 0.00 56 1015.7
20260830064719 55 211 0.0 0.0 0.00 0.00 0.00 58 1015.7
20260830063947 55 211 0.0 0.0 0.00 0.00 0.00 58 1015.6